loading
DOY 175 | 2024-06-23T18:06:08Z

DELTA 1 R/B, 979

Orbit data source: Space-Track

DELTA 1 R/B, 979 is space debris in LEO originally from a launch on Fri, 22 Jan 1965 UTC launched from the Air Force Eastern Test Range (AFETR). Debris objects in space refer to the collection of defunct objects orbiting the Earth. Examples of debris include non-operational satellites, rocket bodies, and fragments generated from explosions, collisions, or faulty payload assembly.

Loading next visibility...
Loading greatness...
DELTA 1 R/B details
NORAD ID979
COSPAR ID
1965-004B
Orbit
LEO
Last TLE update19 hours ago
Origin
Flag of USGSFC (US)
ManufacturerABL
BusAltair
MotorUnknown
Mass60 kg wet, 60 kg dry
Launch date (UTC)
1965-01-22 (59 years ago)
Launch vehicleUnknown
Launch site
Air Force Eastern Test Range (AFETR)
Object type
Payload
Rocket body
Debris
Radar Cross Section0.47 m², Medium (>0.1 m² and < 1m²)
Predictive object data (real-time)
Latitude-58.65522°
Longitude128.86575°
Altitude1,629.519 km
Speed7.059 km/s
Apparent Right ascension20h 45m 20s
Apparent Declination-67° 32' 43"
Sunlit
Object is in daylight
Predictive observer data (real-time)
Local Sidereal Time05:15:15
Azimuth208.438° SW
Elevation-50.468°
Doppler factor1
Orbital elements
Apogee2,523.349 km
Perigee699.326 km
Semi-major axis7,989.475 km
Eccentricity0.1141516
Inclination96.4109°
RAAN
Arg. of periapsis38.8186°
True anomaly321.29553°
Mean anomaly328.9523°
Mean motion3.03925 °/min
BSTAR0.00020243
Period118.45 mins
Definitive object data (Epoch: 2024-06-22T22:38:08.153Z)
Latitude0.00003°
Longitude117.86679°
Altitude867.25 km
Speed7.759 km/s
True Right ascension00h 35m 59s
True Declination0° 00' 00"
Sunlit
Object was in daylight at TLE epoch
TLE from 19 hours ago
0 DELTA 1 R/B
1 00979U 65004B   24174.94314992  .00000154  00000-0  20243-3 0  9993
2 00979  96.4109   9.0000 1141516  38.8186 328.9523 12.15081379627585
Epoch: 2024-06-22T22:38Z
No data available
Other satellites on launch #4 in the year 1965 (1965-01-22 UTC)

DELTA 1 R/B Visibility forecast

Observer location: 39.9160978°, -105.1181434, 0m alt.

DELTA 1 R/B is not visible in the next 10 days
Span
Click to sort rows by Start time (UTC) header in descending order
Start Az.
Max El. time (UTC)
Max El. Az.
Max El.
End time (UTC)
End Az.